When you browse on this site, cookies collect data to enhance your experience and personalize the content and advertising you see.
Visit our Privacy Policy to learn more. By continuing to use the site, you agree to this use of cookies and data.
  • In France
  • List of Countries
  • For 7 days
  • Water Temperature
  • Weather Map
  • Weather Widgets
  • user-avatar
    Login

    Hourly Weather Kabwe

    Today, 2 June, Tuesday

    Time Temperature Precipitation Wind Pressure Humidity
    00:00 +12°C° 0 mm 2 mps 664 mmHg 75%
    01:00 +12°C° 0 mm 2 mps 664 mmHg 77%
    02:00 +12°C° 0 mm 2 mps 664 mmHg 82%
    03:00 +10°C° 0 mm 2 mps 664 mmHg 84%
    04:00 +10°C° 0 mm 2 mps 664 mmHg 85%
    05:00 +10°C° 0 mm 2 mps 663 mmHg 87%
    06:00 +12°C° 0 mm 3 mps 664 mmHg 81%
    07:00 +13°C° 0 mm 4 mps 665 mmHg 75%
    08:00 +15°C° 0 mm 4 mps 666 mmHg 68%
    09:00 +18°C° 0 mm 4 mps 666 mmHg 61%
    10:00 +20°C° 0 mm 4 mps 667 mmHg 54%
    11:00 +23°C° 0 mm 4 mps 667 mmHg 46%
    12:00 +25°C° 0 mm 4 mps 666 mmHg 42%
    13:00 +26°C° 0 mm 3 mps 666 mmHg 38%
    14:00 +27°C° 0 mm 3 mps 665 mmHg 35%
    15:00 +26°C° 0 mm 3 mps 665 mmHg 38%
    16:00 +25°C° 0 mm 3 mps 664 mmHg 41%
    17:00 +24°C° 0 mm 3 mps 664 mmHg 44%
    18:00 +21°C° 0 mm 3 mps 664 mmHg 52%
    19:00 +19°C° 0 mm 3 mps 664 mmHg 61%
    20:00 +17°C° 0 mm 3 mps 664 mmHg 70%
    21:00 +16°C° 0 mm 3 mps 664 mmHg 76%
    22:00 +15°C° 0 mm 2 mps 664 mmHg 81%
    23:00 +14°C° 0 mm 2 mps 663 mmHg 87%

    Tomorrow, 3 June, Wednesday

    Time Temperature Precipitation Wind Pressure Humidity
    00:00 +14°C° 0 mm 2 mps 663 mmHg 89%
    01:00 +13°C° 0 mm 2 mps 663 mmHg 90%
    02:00 +13°C° 0 mm 2 mps 663 mmHg 91%
    03:00 +13°C° 0 mm 2 mps 663 mmHg 89%
    04:00 +13°C° 0 mm 2 mps 663 mmHg 88%
    05:00 +12°C° 0 mm 2 mps 663 mmHg 86%
    06:00 +13°C° 0 mm 3 mps 663 mmHg 79%
    07:00 +14°C° 0 mm 3 mps 664 mmHg 73%
    08:00 +15°C° 0 mm 4 mps 665 mmHg 66%
    09:00 +18°C° 0 mm 4 mps 665 mmHg 58%
    10:00 +21°C° 0 mm 3 mps 666 mmHg 50%
    11:00 +24°C° 0 mm 3 mps 666 mmHg 41%
    12:00 +25°C° 0 mm 3 mps 665 mmHg 38%
    13:00 +27°C° 0 mm 2 mps 665 mmHg 35%
    14:00 +28°C° 0 mm 2 mps 664 mmHg 31%
    15:00 +27°C° 0 mm 2 mps 664 mmHg 34%
    16:00 +26°C° 0 mm 2 mps 664 mmHg 37%
    17:00 +24°C° 0 mm 1 mps 663 mmHg 40%
    18:00 +23°C° 0 mm 2 mps 663 mmHg 45%
    19:00 +20°C° 0 mm 2 mps 663 mmHg 51%
    20:00 +18°C° 0 mm 3 mps 663 mmHg 57%
    21:00 +17°C° 0 mm 2 mps 663 mmHg 66%
    22:00 +16°C° 0 mm 2 mps 663 mmHg 74%
    23:00 +14°C° 0 mm 2 mps 662 mmHg 82%

    Day after tomorrow, 4 June, Thursday

    Time Temperature Precipitation Wind Pressure Humidity
    00:00 +14°C° 0 mm 2 mps 662 mmHg 84%
    01:00 +13°C° 0 mm 2 mps 662 mmHg 87%
    02:00 +13°C° 0 mm 2 mps 662 mmHg 89%
    03:00 +13°C° 0 mm 2 mps 662 mmHg 90%
    04:00 +12°C° 0 mm 2 mps 662 mmHg 91%
    05:00 +12°C° 0 mm 2 mps 662 mmHg 93%
    06:00 +14°C° 0 mm 2 mps 663 mmHg 84%
    07:00 +14°C° 0 mm 3 mps 664 mmHg 76%
    08:00 +16°C° 0 mm 3 mps 665 mmHg 68%
    09:00 +19°C° 0 mm 3 mps 665 mmHg 58%
    10:00 +22°C° 0 mm 3 mps 666 mmHg 48%
    11:00 +26°C° 0 mm 3 mps 666 mmHg 38%
    12:00 +27°C° 0 mm 3 mps 666 mmHg 35%
    13:00 +28°C° 0 mm 2 mps 665 mmHg 31%
    14:00 +30°C° 0 mm 2 mps 665 mmHg 28%
    15:00 +28°C° 0 mm 2 mps 664 mmHg 30%
    16:00 +27°C° 0 mm 2 mps 664 mmHg 33%
    17:00 +26°C° 0 mm 2 mps 664 mmHg 35%
    18:00 +24°C° 0 mm 3 mps 664 mmHg 40%
    19:00 +21°C° 0 mm 3 mps 664 mmHg 45%
    20:00 +20°C° 0 mm 3 mps 664 mmHg 50%
    21:00 +18°C° 0 mm 2 mps 664 mmHg 59%
    22:00 +17°C° 0 mm 2 mps 664 mmHg 68%
    23:00 +15°C° 0 mm 2 mps 663 mmHg 77%

    5 June, Friday

    Time Temperature Precipitation Wind Pressure Humidity
    00:00 +15°C° 0 mm 2 mps 663 mmHg 80%
    01:00 +14°C° 0 mm 2 mps 663 mmHg 83%
    02:00 +14°C° 0 mm 2 mps 663 mmHg 86%
    03:00 +14°C° 0 mm 2 mps 663 mmHg 87%
    04:00 +14°C° 0 mm 2 mps 663 mmHg 88%
    05:00 +14°C° 0 mm 2 mps 663 mmHg 88%
    06:00 +15°C° 0 mm 2 mps 664 mmHg 84%
    07:00 +16°C° 0 mm 3 mps 665 mmHg 80%
    08:00 +17°C° 0 mm 3 mps 665 mmHg 76%
    09:00 +20°C° 0 mm 3 mps 666 mmHg 65%
    10:00 +22°C° 0 mm 3 mps 666 mmHg 54%
    11:00 +26°C° 0 mm 3 mps 667 mmHg 44%
    12:00 +27°C° 0 mm 3 mps 666 mmHg 39%
    13:00 +27°C° 0 mm 2 mps 666 mmHg 35%
    14:00 +28°C° 0 mm 2 mps 665 mmHg 30%
    15:00 +27°C° 0 mm 2 mps 665 mmHg 33%
    16:00 +26°C° 0 mm 2 mps 664 mmHg 35%
    17:00 +25°C° 0 mm 2 mps 664 mmHg 37%
    18:00 +24°C° 0 mm 2 mps 664 mmHg 41%
    19:00 +23°C° 0 mm 2 mps 665 mmHg 44%
    20:00 +21°C° 0 mm 3 mps 665 mmHg 48%
    21:00 +20°C° 0 mm 2 mps 665 mmHg 54%
    22:00 +18°C° 0 mm 2 mps 665 mmHg 60%
    23:00 +17°C° 0 mm 2 mps 664 mmHg 66%

    6 June, Saturday

    Time Temperature Precipitation Wind Pressure Humidity
    00:00 +17°C° 0 mm 2 mps 664 mmHg 68%
    01:00 +16°C° 0 mm 2 mps 664 mmHg 71%
    02:00 +15°C° 0 mm 2 mps 663 mmHg 73%
    03:00 +15°C° 0 mm 2 mps 663 mmHg 78%
    04:00 +14°C° 0 mm 2 mps 663 mmHg 82%
    05:00 +13°C° 0 mm 2 mps 663 mmHg 86%
    06:00 +14°C° 0 mm 2 mps 664 mmHg 82%
    07:00 +16°C° 0 mm 3 mps 665 mmHg 77%
    08:00 +17°C° 0 mm 4 mps 665 mmHg 73%
    09:00 +19°C° 0 mm 4 mps 666 mmHg 63%
    10:00 +21°C° 0 mm 4 mps 666 mmHg 53%
    11:00 +24°C° 0 mm 3 mps 666 mmHg 43%
    12:00 +25°C° 0 mm 3 mps 666 mmHg 39%
    13:00 +26°C° 0 mm 3 mps 666 mmHg 34%
    14:00 +26°C° 0 mm 2 mps 665 mmHg 29%
    15:00 +25°C° 0 mm 2 mps 665 mmHg 32%
    16:00 +24°C° 0 mm 2 mps 665 mmHg 34%
    17:00 +23°C° 0 mm 2 mps 664 mmHg 37%
    18:00 +21°C° 0 mm 2 mps 664 mmHg 41%
    19:00 +20°C° 0 mm 2 mps 664 mmHg 45%
    20:00 +19°C° 0 mm 2 mps 665 mmHg 49%
    21:00 +18°C° 0 mm 2 mps 665 mmHg 51%
    22:00 +17°C° 0 mm 2 mps 665 mmHg 53%
    23:00 +17°C° 0 mm 2 mps 664 mmHg 55%

    7 June, Sunday

    Time Temperature Precipitation Wind Pressure Humidity
    00:00 +16°C° 0 mm 2 mps 664 mmHg 61%
    01:00 +15°C° 0 mm 2 mps 664 mmHg 66%
    02:00 +14°C° 0 mm 2 mps 663 mmHg 71%
    03:00 +13°C° 0 mm 2 mps 663 mmHg 73%
    04:00 +13°C° 0 mm 2 mps 663 mmHg 76%
    05:00 +13°C° 0 mm 2 mps 663 mmHg 78%
    06:00 +13°C° 0 mm 3 mps 664 mmHg 74%
    07:00 +14°C° 0 mm 4 mps 664 mmHg 71%
    08:00 +15°C° 0 mm 4 mps 665 mmHg 67%
    09:00 +18°C° 0 mm 4 mps 665 mmHg 59%
    10:00 +20°C° 0 mm 4 mps 666 mmHg 51%
    11:00 +22°C° 0 mm 4 mps 666 mmHg 42%
    12:00 +23°C° 0 mm 4 mps 665 mmHg 39%
    13:00 +25°C° 0 mm 4 mps 665 mmHg 37%
    14:00 +26°C° 0 mm 4 mps 665 mmHg 34%
    15:00 +25°C° 0 mm 4 mps 664 mmHg 35%
    16:00 +24°C° 0 mm 3 mps 664 mmHg 37%
    17:00 +22°C° 0 mm 3 mps 664 mmHg 39%
    18:00 +20°C° 0 mm 3 mps 664 mmHg 45%
    19:00 +18°C° 0 mm 2 mps 664 mmHg 51%
    20:00 +15°C° 0 mm 2 mps 663 mmHg 58%
    21:00 +15°C° 0 mm 2 mps 663 mmHg 62%
    22:00 +14°C° 0 mm 2 mps 663 mmHg 66%
    23:00 +13°C° 0 mm 1 mps 663 mmHg 70%
    Show more